Flag for Germany Weather past 2 weeks in Dorsten, North Rhine-Westphalia, Germany

Now
54 °F

Sunny.


Feels Like: 53 °F
Forecast: 37 / 58 °F
Wind: 5 mph from Northeast

Location: Essen

Current Time: Apr 18, 2015 at 2:46:37 PM

Latest Report: Apr 18, 2015 at 2:00 PM


Visibility: 19 mi

Pressure: 30.34 "Hg

Humidity: 45%

Dew point: 33 °F

Location of DorstenLocation

Historic Weather in Dorsten — Graph

°F

Dorsten temperature yesterday

Maximum temperature yesterday: 53 °F (at 5:00 PM)
Minimum temperature yesterday: 42 °F (at 6:00 AM)
Average temperature yesterday: 47 °F

Past Weeks' High & Low Weather Summary

 TemperatureHumidityPressure
High72 °F (Apr 15, 3:00 PM)100% (Apr 6, 11:00 AM)30.65 "Hg (Apr 6, 11:00 AM)
Low32 °F (Apr 5, 7:00 AM)27% (Apr 10, 3:00 PM)29.93 "Hg (Apr 15, 7:00 PM)
Average50 °F65%30.25 "Hg
* Reported Apr 3 2:00 PM — Apr 18 2:00 PM, Dorsten, Weather by CustomWeather, © 2015

Note: Actual official high and low records may vary slightly from our data, if they occured in-between our weather recording intervals... More about our weather records

Advertising

Dorsten weather history for previous 24 hours

 ConditionsComfort  
Time TempWeatherWind HumidityBarometerVisibility
2:00 PM
Sat, Apr 18
54 °FSunny.5 mph45%30.34 "Hg19 mi
1:00 PM53 °FPassing clouds.5 mph44%30.34 "Hg19 mi
12:00 PM51 °FScattered clouds.6 mph50%30.36 "Hg19 mi
11:00 AM49 °FPassing clouds.5 mph56%30.36 "Hg22 mi
10:00 AM46 °FSunny.5 mph66%30.35 "Hg17 mi
9:00 AM43 °FSunny.2 mph73%30.35 "Hg19 mi
8:00 AM41 °FSunny.3 mph80%30.33 "Hg19 mi
7:00 AM38 °FSunny.3 mph84%30.31 "Hg22 mi
6:00 AM39 °FClear.3 mph80%30.29 "Hg22 mi
5:00 AM39 °FClear.2 mph78%30.29 "Hg31 mi
4:00 AM39 °FClear.2 mph75%30.29 "Hg37 mi
3:00 AM41 °FClear.2 mph71%30.27 "Hg37 mi
2:00 AM42 °FClear.3 mph67%30.27 "Hg34 mi
1:00 AM44 °FClear.5 mph64%30.24 "Hg34 mi
12:00 AM45 °FClear.5 mph61%30.22 "Hg31 mi
11:00 PM
Fri, Apr 17
46 °FClear.5 mph58%30.19 "Hg34 mi
10:00 PM47 °FClear.3 mph57%30.17 "Hg34 mi
9:00 PM49 °FClear.5 mph51%30.14 "Hg37 mi
8:00 PM50 °FPassing clouds.6 mph47%30.11 "Hg43 mi
7:00 PM52 °FScattered clouds.6 mph44%30.09 "Hg28 mi
6:00 PM52 °FPartly sunny.7 mph45%30.09 "Hg37 mi
5:00 PM53 °FOvercast.5 mph45%30.08 "HgN/A
4:00 PM52 °FOvercast.6 mph50%30.08 "Hg37 mi
3:00 PM50 °FOvercast.6 mph57%30.08 "Hg28 mi
2:00 PM52 °FOvercast.5 mph58%30.08 "Hg25 mi
Weather by CustomWeather, © 2015

See weather overviewHow to use our weather pages